COSMOS 2458 (GLONASS)

Satellite information

Favourite Embed

Satellite Type and Status

PAYLOADIN ORBIT

Key statistics

Satellite COSMOS 2458 (GLONASS) at a glance.

Uptime

5747

Days in orbit

Revolutions

≈ 2.1

Per day

Orbit

MEO

Medium Earth Orbit

Inclination

64.8

Latest

Satellite identification and parameters

Extended collection of information and parameters for COSMOS 2458 (GLONASS).

Object identification

Identified? True

Debris? False

Object name: COSMOS 2458 (GLONASS)

International designator: 2009-070C

Object number (NORAD): 36113

Object ID (CCSDS): 36113

Country: COMMONWEALTH OF INDEPENDENT STATES (CIS)

Current information (Y/N): Y

RCS size: LARGE

Orbital parameters

Period: 675.794 minutes

Inclination: 64.8343 deg

SMA: 25509.573 km

Apoapsis: 19140.873 km

Periapsis: 19122.004 km

RAAN: 80.5216 deg

Eccentricy: 0.00036985

Argument of periapsis: 339.6832 deg

Mean anomaly: 201.8676 deg

Mean motion: 2.13082591 rev/day

Mean motion (dot): 0.00000054 rev/day2

B* drag term: 0.0 1/REarth

Two-line elements (TLE)

Creation date: Sept. 8, 2025, 3:16 a.m.

Reference frame: TEME

Reference center: EARTH

Epoch: Sept. 7, 2025, 1:41 p.m. UTC

TLE line 0: 0 COSMOS 2458 (GLONASS)

TLE line 1: 1 36113U 09070C 25250.57050012 .00000054 00000-0 00000-0 0 9993

TLE line 2: 2 36113 64.8343 80.5216 0003698 339.6832 201.8676 2.13082591122439

Live tracking on map

Real-time ground track for satellite COSMOS 2458 (GLONASS).

In-orbit conjunctions

There are no conjunctions computed for COSMOS 2458 (GLONASS), at the moment. Check back to stay up to date, as we update our databases every day.

Go to all conjunctions

Associated space launch

GLONASS navigation satellites

COSMOS 2458 (GLONASS) was lifted into orbit during the mission ‘Proton-M | Uragan-M 21 to 23’, on board a Proton-M space rocket.

The launch took place on Dec. 14, 2009, 10:38 a.m. from 81/24 (81P).

For more information about the launch, click the button.

Launch to space Proton-M | Uragan-M 21 to 23
Proton-M | Uragan-M 21 to 23

Agency: N/A

Status: Launch Successful

Launch date: Dec. 14, 2009, 10:38 a.m. UTC

Rocket: Proton-M

Launch pad: 81/24 (81P)

Location: Baikonur Cosmodrome, Republic of Kazakhstan

...

Latest news about this satellite

There are no fresh news available about this satellite. Check back as we update our databases every day.


Newsletter sign-up

Weekly statistics, charts and insights to help you stay on top of the space industry.